Location: ?????
(54.9266°N, 38.5527°E)
Time: 03:32:06
(UTC+00:00)

Cosmos 2219 Rocket - Pass Details

Date: 14 April 2024
Orbit: 828 x 845 km, 71.0° (Epoch: 20 May)

Event Time Altitude Azimuth Distance (km) Brightness Sun altitude
Exits shadow 00:27:00 23° 236° (SW) 1,688 3.2 -15.3°
Maximum altitude 00:30:26 60° 309° (NW) 946 2.4 -14.9°
Drops below altitude 10° 00:35:59 10° 30° (NNE) 2,445 5.8 -14.3°
Sets 00:38:28 0° 34° (NE) 3,383 7.0 -14.1°
